Vertical_Velocity
-2 -0 1 -1 -1 0 -1 -1 2 -2 3 2 2 3 2 6 -5 -2 -2 -2 -2 -0 3 -6 -2 -2 -3 4 3 2 2 -6 16 8 3 8 5 4 -1 0 0 3 3 1
-3 -1 0 1 0 0 -0 -0 -0 0 -1 4 -1 -2 -4 2 -1 -2 -2 -1 -0 1 3 3 -2 2 -1 3 1 0 2 3 10 5 10 1 7 2 2 3 -1 4 0 0
-5 -0 -1 -1 -4 -1 -1 -0 -4 -2 -5 -0 -5 -2 2 -0 -1 1 -0 -1 -1 1 0 1 3 4 2 -2 0 -1 6 9 -3 7 4 -0 3 7 4 -4 2 3 2 0
-3 -4 -5 -16 0 -2 -2 -1 0 -0 -1 1 2 -1 5 -0 1 0 2 -0 1 0 -0 -3 -3 1 4 -3 -1 5 4 -1 2 5 -2 3 5 5 6 2 1 -1 0 3
-4 -1 -9 -0 -0 -4 -7 -6 -0 -0 -1 -1 -5 4 5 3 1 3 3 0 1 4 -1 -5 0 -3 -2 -3 4 4 -6 1 -3 -0 0 2 8 5 9 4 3 -1 -1 2
-2 2 -1 -5 1 -1 -2 -6 0 -0 -0 1 -3 -3 -1 -9 -0 -3 1 3 -2 -4 1 2 2 -7 3 1 4 -2 -1 0 -5 2 -3 5 7 7 -0 5 5 4 1 1
-1 -0 -1 -1 -0 -1 -10 -17 0 0 1 -0 0 5 -1 2 -4 0 1 -4 2 0 4 3 7 1 5 -1 -3 4 0 5 -9 3 3 -0 3 6 4 1 2 4 6 2
-1 2 -6 0 6 0 -6 0 3 1 3 -0 -1 -4 2 -2 -3 -1 -2 -5 -3 -2 -2 -1 4 -4 5 -5 -0 3 6 -9 -2 5 2 -3 -1 3 4 4 1 3 6 1
-9 -8 -2 1 -4 -1 -1 2 0 -1 -1 1 1 0 0 -3 -1 -2 1 -0 1 -0 -3 -2 0 -0 -2 1 6 2 0 -2 3 1 -0 1 -0 3 1 8 2 3 -1 2
-4 -1 -0 -1 3 1 -1 -4 -1 3 1 0 3 -2 0 0 -4 -1 -2 -2 -0 -1 -4 -2 -1 1 5 -1 -3 0 -2 -1 2 2 2 -1 -1 1 3 5 5 7 1 3
1 3 4 6 4 1 0 0 1 -2 -0 3 -0 -3 0 0 0 -3 -1 -0 -1 1 -0 -1 -0 -0 -1 -2 2 -4 1 -4 -3 -1 3 1 3 1 2 4 -0 5 4 4
-1 3 -2 7 4 0 -2 -3 -1 -2 -4 -3 0 -1 -1 -2 0 -1 7 -4 -1 1 1 0 0 -0 -1 -0 -2 -0 -2 -1 -1 -3 3 2 1 -2 2 -2 1 0 -3 3
3 -1 -3 -4 10 -0 -2 -2 -5 2 1 -0 -1 1 -1 -3 -2 6 -1 -1 -2 -4 -1 -0 -1 0 -1 -0 -1 4 1 -4 -2 5 3 2 -3 -0 -1 2 -10 1 8 1
-2 -4 1 5 1 0 -2 -1 -2 -1 3 1 -2 -1 1 -1 -2 2 1 -0 -0 -1 -3 0 1 3 1 -4 -3 3 0 2 0 6 -2 2 0 1 2 0 -0 1 8 13
-2 -3 -1 -1 -1 -2 -1 -2 -2 -1 -1 -1 0 -1 0 -1 -2 -2 1 2 -0 -1 3 -3 -4 -0 1 3 -1 -1 -3 -1 1 4 -1 2 2 1 0 -2 1 1 -2 1
-2 -2 -0 -1 -1 -1 -1 0 -1 -0 -0 -0 -0 -1 -1 2 1 -2 -0 1 -2 -5 -2 -2 0 -4 -5 2 0 0 -1 2 2 -2 -2 1 -1 2 -2 -1 -2 -1 -1 1
-1 0 -0 -0 -1 -0 -0 1 -0 -1 -3 -1 -0 0 -1 -1 2 2 -1 -0 0 2 2 -0 -3 4 -2 -1 -1 -1 -1 0 -0 0 -4 3 -1 -1 -2 -1 -2 -1 1 1
-1 0 0 -0 -2 -2 -2 1 1 0 -1 -1 -1 -0 0 -0 -1 0 -0 -3 -2 -0 1 2 1 2 1 3 1 1 2 -0 -3 -1 -2 -1 1 1 -0 -3 -0 0 -1 -1
-1 -2 -1 -1 1 -0 -1 -2 1 -0 0 1 -2 -2 1 1 -1 0 2 2 -1 -5 -3 -2 -1 1 1 -1 -1 -3 -1 -3 -2 0 2 1 -2 2 3 -2 -4 1 0 -1
-2 -1 0 -2 1 0 -3 1 -1 -2 1 1 0 -1 -1 2 -0 -2 2 1 4 -3 -1 -1 -3 1 -2 1 5 1 1 1 1 1 2 1 -0 -0 2 -1 -0 -2 0 -2
-1 -1 -0 -1 -2 1 2 -0 -2 -2 0 2 1 -1 -1 0 -1 -0 -1 -1 2 -2 3 -6 -3 -1 -5 7 -1 1 1 -2 1 0 0 -1 -1 -1 -1 0 1 -0 2 0
-0 -1 -1 0 -1 -3 2 1 -1 -1 1 0 1 1 -1 0 0 1 3 1 -3 -2 11 -3 -2 -8 12 -4 -2 -0 0 -0 2 -1 -1 -1 -0 0 1 1 2 1 -1 0
-1 -1 -1 -0 -1 -2 -0 2 0 1 2 1 0 -0 1 -0 -0 -1 -3 -1 -3 -0 3 0 -0 5 -2 -3 -2 -1 -2 -1 2 -1 -0 -2 -2 -0 1 0 2 -0 1 -1
-1 -1 -2 -0 -0 -0 -1 2 0 2 -1 1 -0 0 0 -2 2 2 2 1 -3 9 -3 -3 3 6 -1 -1 -3 -2 -1 -2 -0 1 -1 -2 1 -0 3 2 1 -2 -0 0
-1 -1 -1 -1 -1 0 1 -0 -0 9 -1 -1 -1 -0 2 1 1 -2 -2 1 0 0 -1 -1 -1 1 3 2 1 -1 -1 -1 0 1 -1 1 1 2 0 2 1 1 2 0
-1 -2 -1 0 -1 -1 0 -2 -0 4 0 -5 -1 1 0 0 1 0 1 1 1 0 1 -2 -2 -2 -0 2 3 2 2 1 1 -1 -2 -1 -1 -0 -1 0 -0 -1 0 1
-3 5 -1 -3 1 1 -4 4 13 -1 -1 -6 -2 0 -1 -1 -1 -1 1 0 0 1 1 -0 -1 -1 -1 -1 1 4 4 2 1 3 4 3 2 1 1 1 1 2 3 2
Height
1446 1441 1438 1445 1450 1457 1456 1461 1455 1452 1442 1444 1444 1441 1435 1429 1424 1415 1408 1403 1400 1396 1385 1381 1376 1373 1366 1364 1359 1353 1353 1352 1353 1356 1362 1369 1373 1378 1383 1387 1393 1400 1406 1413
1458 1437 1434 1437 1445 1454 1453 1456 1454 1453 1446 1443 1441 1440 1434 1430 1428 1424 1415 1411 1403 1398 1392 1382 1379 1376 1372 1366 1358 1354 1354 1355 1348 1351 1356 1360 1368 1372 1377 1383 1388 1394 1399 1406
1457 1440 1448 1442 1448 1454 1460 1461 1463 1462 1456 1446 1439 1434 1433 1431 1430 1428 1425 1419 1412 1403 1391 1386 1380 1376 1369 1365 1364 1359 1356 1348 1349 1350 1350 1357 1363 1368 1372 1378 1384 1388 1394 1400
1456 1455 1462 1448 1442 1446 1451 1457 1454 1454 1451 1448 1444 1438 1435 1433 1430 1425 1422 1417 1410 1399 1392 1386 1383 1379 1372 1366 1366 1361 1353 1351 1348 1348 1350 1355 1358 1364 1368 1373 1378 1383 1389 1394
1460 1456 1447 1446 1441 1445 1450 1456 1450 1451 1448 1446 1442 1435 1434 1431 1429 1426 1421 1415 1408 1403 1399 1394 1390 1383 1377 1374 1367 1358 1357 1353 1349 1348 1353 1354 1355 1358 1363 1369 1373 1378 1384 1390
1457 1449 1440 1440 1441 1442 1444 1452 1446 1446 1446 1445 1441 1440 1435 1435 1429 1423 1418 1415 1413 1409 1405 1399 1392 1384 1382 1374 1366 1361 1356 1355 1354 1353 1353 1352 1351 1354 1359 1365 1370 1375 1380 1386
1436 1425 1427 1440 1439 1442 1452 1450 1443 1443 1443 1443 1443 1443 1437 1432 1429 1424 1421 1415 1411 1407 1401 1399 1392 1387 1380 1370 1365 1365 1361 1355 1355 1357 1351 1349 1349 1351 1355 1361 1367 1373 1377 1382
1429 1422 1425 1436 1439 1442 1442 1441 1442 1442 1440 1439 1439 1437 1435 1432 1427 1423 1418 1413 1408 1402 1396 1393 1387 1383 1377 1374 1374 1367 1361 1357 1361 1353 1351 1350 1350 1350 1352 1357 1363 1369 1375 1380
1435 1434 1434 1434 1435 1438 1439 1439 1440 1440 1438 1436 1435 1434 1432 1428 1424 1420 1416 1412 1408 1402 1397 1394 1389 1387 1383 1378 1372 1362 1359 1360 1357 1353 1351 1351 1350 1349 1351 1355 1358 1364 1371 1376
1431 1433 1431 1433 1435 1437 1437 1438 1438 1438 1435 1434 1432 1431 1428 1426 1422 1418 1414 1409 1404 1401 1398 1396 1392 1387 1382 1376 1372 1367 1364 1360 1357 1355 1353 1352 1352 1350 1349 1350 1355 1361 1366 1371
1426 1429 1431 1433 1434 1435 1436 1436 1436 1435 1434 1432 1430 1428 1426 1423 1421 1418 1413 1410 1406 1402 1399 1394 1389 1384 1380 1376 1371 1367 1365 1362 1359 1357 1353 1352 1349 1349 1348 1348 1351 1357 1363 1368
1422 1427 1428 1431 1433 1432 1433 1434 1433 1432 1431 1429 1428 1426 1424 1421 1418 1416 1414 1409 1405 1401 1398 1394 1389 1384 1382 1377 1373 1370 1366 1366 1361 1361 1358 1352 1349 1349 1350 1351 1350 1353 1360 1365
1427 1428 1428 1430 1431 1430 1431 1431 1430 1430 1428 1426 1425 1424 1422 1419 1416 1414 1411 1408 1405 1400 1396 1393 1390 1389 1384 1378 1375 1371 1366 1364 1362 1359 1354 1351 1352 1352 1350 1351 1353 1357 1358 1362
1425 1427 1427 1428 1428 1429 1428 1428 1427 1426 1425 1424 1422 1421 1420 1418 1414 1412 1409 1406 1403 1401 1398 1394 1389 1384 1381 1379 1375 1371 1367 1366 1364 1360 1356 1354 1353 1352 1351 1350 1352 1354 1356 1355
1424 1425 1426 1427 1427 1426 1426 1425 1424 1423 1422 1421 1420 1418 1417 1414 1412 1409 1406 1404 1402 1399 1396 1393 1388 1385 1382 1378 1374 1370 1366 1365 1361 1356 1356 1355 1353 1352 1351 1351 1352 1353 1354 1358
1423 1423 1424 1424 1424 1424 1423 1422 1421 1420 1419 1418 1417 1416 1414 1412 1410 1407 1403 1400 1397 1394 1393 1391 1388 1385 1379 1374 1372 1369 1368 1364 1359 1358 1356 1354 1352 1351 1351 1350 1352 1355 1357 1360
1422 1422 1422 1422 1422 1422 1421 1420 1419 1417 1416 1415 1414 1413 1411 1409 1406 1404 1401 1397 1394 1391 1390 1389 1386 1385 1382 1378 1375 1369 1364 1360 1357 1358 1357 1355 1352 1352 1351 1352 1353 1355 1358 1360
1420 1420 1420 1419 1419 1418 1417 1417 1416 1414 1413 1412 1411 1410 1409 1407 1403 1401 1399 1396 1392 1390 1388 1386 1383 1380 1376 1372 1368 1366 1362 1359 1359 1357 1357 1354 1352 1352 1351 1350 1353 1355 1356 1358
1417 1417 1417 1416 1416 1415 1414 1413 1411 1410 1410 1409 1408 1407 1406 1405 1402 1399 1396 1394 1392 1388 1386 1383 1379 1376 1374 1371 1368 1364 1360 1360 1359 1358 1356 1353 1353 1352 1350 1349 1352 1353 1355 1358
1414 1414 1413 1412 1412 1411 1410 1409 1407 1406 1406 1405 1405 1405 1403 1402 1400 1397 1394 1392 1391 1389 1386 1382 1378 1375 1371 1368 1366 1363 1360 1359 1357 1355 1354 1352 1351 1350 1349 1351 1353 1354 1356 1356
1411 1410 1409 1409 1408 1407 1406 1404 1403 1402 1402 1402 1402 1401 1400 1399 1397 1395 1392 1389 1388 1386 1386 1382 1377 1375 1371 1368 1362 1359 1356 1354 1353 1351 1350 1349 1350 1350 1351 1352 1352 1353 1353 1354
1407 1406 1406 1405 1404 1403 1402 1401 1400 1399 1399 1399 1399 1399 1398 1397 1395 1393 1392 1389 1385 1384 1383 1380 1378 1375 1372 1364 1360 1357 1355 1354 1353 1351 1349 1350 1350 1350 1351 1351 1350 1351 1352 1354
1404 1403 1403 1402 1401 1399 1398 1398 1397 1397 1397 1397 1396 1396 1395 1394 1393 1391 1388 1387 1385 1382 1379 1376 1376 1375 1370 1364 1361 1357 1355 1354 1352 1351 1351 1351 1350 1351 1351 1351 1350 1351 1353 1354
1401 1400 1400 1399 1397 1396 1395 1395 1395 1395 1395 1395 1394 1394 1393 1391 1391 1390 1388 1385 1383 1382 1377 1374 1373 1372 1367 1364 1361 1359 1357 1355 1353 1351 1350 1352 1352 1351 1350 1350 1350 1352 1353 1355
1397 1397 1396 1396 1395 1394 1394 1393 1393 1394 1393 1393 1392 1391 1391 1390 1389 1387 1385 1384 1381 1379 1375 1372 1370 1368 1365 1363 1362 1360 1358 1356 1354 1352 1352 1353 1351 1351 1352 1352 1353 1354 1353 1356
1394 1394 1393 1393 1392 1392 1392 1392 1392 1392 1392 1390 1389 1389 1388 1387 1386 1385 1384 1382 1380 1377 1375 1372 1370 1367 1364 1362 1361 1359 1357 1356 1355 1354 1353 1353 1352 1353 1354 1354 1354 1355 1357 1358
1392 1392 1391 1391 1391 1391 1390 1391 1390 1390 1389 1389 1388 1387 1385 1385 1384 1383 1381 1380 1378 1376 1374 1372 1371 1369 1366 1364 1361 1360 1359 1358 1357 1358 1358 1358 1357 1357 1357 1357 1357 1359 1361 1362